Tiempo Historia de Oskaloosa, IA

Change the Weather History Date:

Viernes, Mayo 18, 2012

  Actual Average (KOTM) Record (KOTM)
Temperature  
Temperatura media 70 ° F 62 ° F  
Temperatura máxima 88 ° F 73 ° F 92 ° F (1962)
Temperatura mínima 52 ° F 51 ° F 34 ° F (2002)
Degree Days  
Grados día de calefacción 0 5  
Month to date heating degree days 122  
Since 1 July heating degree days 6252  
Cooling Degree Days 4 2  
Month to date cooling degree days 21  
Year to date cooling degree days 32  
Growing Degree Days 20 (Base 50)    
Moisture  
Punto de rocío 46 ° F    
Average Humidity 41    
Maximum Humidity 62    
Minimum Humidity 26    
Precipitación  
Precipitación 0.00 pul 0.15 pul 2.23 pul (1927)
Month to date precipitation 2.66  
Year to date precipitation 10.48  
Presión al nivel del mar  
Presión al nivel del mar 29.92 pul    
Viento  
Velocidad del viento 12 mph (SSE)    
Velocidad máxima del viento 24 mph    
Max Gust Speed 30 mph    
Visibilidad 10 Millas    
Eventos      
T = Trace of Precipitation, MM = Missing Value Source: NWS Daily Summary

Daily Weather History Graph

Daily Weather History Graph

Search for Another Location

Airport:

Trip Planner

Search our weather history database for the weather conditions in past years. The results will help you decide how hot, cold, wet, or windy it might be!

Date:

Astronomía

May. 18, 2012 Salida Puesta
Hora real 5:48 AM CDT 8:25 PM CDT
Crepúsculo civil 5:16 AM CDT 8:56 PM CDT
Crepúsculo náutico 4:36 AM CDT 9:36 PM CDT
Crepúsculo astronómico 3:52 AM CDT 10:21 PM CDT
Luna 4:18 AM CDT 6:33 PM CDT
Horas de luz 15h 40m
Horas de luz
14h 36m
Creciente menguante, 5% of the Moon is Illuminated
May 18
Creciente menguante
May 20
Nueva
May 28
Cuarto creciente
Jun 4
Luna llena
Jun 11
Cuarto menguante

Hourly Weather History & Observations

Hora (CDT) Temp. Punto de rocío Humedad Presión Visibilidad Wind Dir Velocidad del viento Velocidad de ráfagas Precip Eventos Condiciones
12:15 AM 59.4 ° F 38.7 ° F 46% 29.96 pul 10.0 mi SSE 10.4 mph - N/A   Despejado
12:35 AM 58.5 ° F 38.5 ° F 47% 29.96 pul 10.0 mi SSE 9.2 mph - N/A   Despejado
12:55 AM 57.4 ° F 38.3 ° F 49% 29.96 pul 10.0 mi SSE 8.1 mph - N/A   Despejado
1:15 AM 56.5 ° F 38.3 ° F 51% 29.96 pul 10.0 mi SSE 9.2 mph - N/A   Despejado
1:35 AM 55.8 ° F 38.5 ° F 52% 29.96 pul 10.0 mi SSE 8.1 mph - N/A   Despejado
1:55 AM 55.8 ° F 38.7 ° F 53% 29.96 pul 10.0 mi SSE 9.2 mph - N/A   Despejado
2:15 AM 56.5 ° F 39.4 ° F 53% 29.95 pul 10.0 mi SSE 9.2 mph - N/A   Despejado
2:35 AM 55.8 ° F 39.6 ° F 55% 29.95 pul 10.0 mi SSE 8.1 mph - N/A   Despejado
2:55 AM 55.4 ° F 39.6 ° F 55% 29.95 pul 10.0 mi SSE 9.2 mph - N/A   Despejado
3:15 AM 54.7 ° F 39.7 ° F 57% 29.95 pul 10.0 mi SSE 6.9 mph - N/A   Despejado
3:35 AM 52.7 ° F 39.4 ° F 61% 29.96 pul 10.0 mi Sur 5.8 mph - N/A   Despejado
3:55 AM 52.7 ° F 39.7 ° F 61% 29.96 pul 10.0 mi Sur 8.1 mph - N/A   Despejado
4:15 AM 53.6 ° F 39.9 ° F 60% 29.95 pul 10.0 mi SSE 9.2 mph - N/A   Despejado
4:35 AM 52.7 ° F 40.1 ° F 62% 29.96 pul 10.0 mi SSE 8.1 mph - N/A   Despejado
4:55 AM 53.4 ° F 40.1 ° F 61% 29.96 pul 10.0 mi SSE 9.2 mph - N/A   Despejado
5:15 AM 55.0 ° F 41.2 ° F 60% 29.96 pul 10.0 mi Sur 10.4 mph - N/A   Despejado
5:35 AM 55.8 ° F 41.9 ° F 60% 29.96 pul 10.0 mi Sur 9.2 mph - N/A   Despejado
5:55 AM 55.9 ° F 42.1 ° F 60% 29.96 pul 10.0 mi Sur 9.2 mph - N/A   Despejado
6:15 AM 56.3 ° F 42.8 ° F 61% 29.97 pul 10.0 mi Sur 8.1 mph - N/A   Despejado
6:35 AM 56.8 ° F 43.0 ° F 60% 29.97 pul 10.0 mi SSE 8.1 mph - N/A   Despejado
6:55 AM 59.2 ° F 43.7 ° F 57% 29.98 pul 10.0 mi SSE 6.9 mph - N/A   Despejado
7:15 AM 61.3 ° F 43.9 ° F 53% 29.98 pul 10.0 mi SSE 9.2 mph - N/A   Despejado
7:35 AM 63.5 ° F 43.7 ° F 48% 29.97 pul 10.0 mi SSE 11.5 mph - N/A   Despejado
7:55 AM 65.5 ° F 43.7 ° F 45% 29.97 pul 10.0 mi SSE 13.8 mph - N/A   Despejado
8:15 AM 67.3 ° F 44.1 ° F 43% 29.97 pul 10.0 mi Sur 13.8 mph - N/A   Despejado
8:35 AM 68.4 ° F 44.8 ° F 43% 29.97 pul 10.0 mi Sur 13.8 mph - N/A   Despejado
8:55 AM 70.9 ° F 45.1 ° F 40% 29.97 pul 10.0 mi Sur 15.0 mph - N/A   Despejado
9:15 AM 73.0 ° F 44.8 ° F 36% 29.96 pul 10.0 mi Sur 16.1 mph - N/A   Despejado
9:35 AM 75.0 ° F 44.2 ° F 33% 29.96 pul 10.0 mi Sur 16.1 mph 21.9 mph N/A   Despejado
9:55 AM 74.8 ° F 45.1 ° F 35% 29.96 pul 10.0 mi Sur 15.0 mph - N/A   Despejado
10:15 AM 74.7 ° F 46.2 ° F 36% 29.95 pul 10.0 mi Sur 13.8 mph - N/A   Despejado
10:35 AM 75.9 ° F 46.6 ° F 35% 29.95 pul 10.0 mi Sur 17.3 mph 20.7 mph N/A   Despejado
10:55 AM 77.7 ° F 47.5 ° F 34% 29.95 pul 10.0 mi Sur 17.3 mph - N/A   Despejado
11:15 AM 79.3 ° F 48.2 ° F 33% 29.94 pul 10.0 mi Sur 16.1 mph - N/A   Despejado
11:35 AM 80.6 ° F 48.0 ° F 32% 29.94 pul 10.0 mi Sur 17.3 mph - N/A   Despejado
11:55 AM 82.0 ° F 47.7 ° F 30% 29.93 pul 10.0 mi Sur 15.0 mph 20.7 mph N/A   Despejado
12:15 PM 83.7 ° F 47.8 ° F 29% 29.93 pul 10.0 mi Sur 18.4 mph 21.9 mph N/A   Despejado
12:35 PM 84.9 ° F 48.4 ° F 28% 29.92 pul 10.0 mi SSO 16.1 mph - N/A   Despejado
12:55 PM 85.6 ° F 48.9 ° F 28% 29.92 pul 10.0 mi Sur 16.1 mph - N/A   Despejado
1:15 PM 85.5 ° F 48.6 ° F 28% 29.92 pul 10.0 mi Sur 16.1 mph - N/A   Despejado
1:35 PM 85.5 ° F 48.6 ° F 28% 29.91 pul 10.0 mi Sur 19.6 mph 24.2 mph N/A   Despejado
1:55 PM 85.8 ° F 48.9 ° F 28% 29.91 pul 10.0 mi Sur 17.3 mph 26.5 mph N/A   Despejado
2:15 PM 86.2 ° F 49.6 ° F 28% 29.90 pul 10.0 mi Sur 19.6 mph 24.2 mph N/A   Despejado
2:35 PM 85.3 ° F 49.1 ° F 28% 29.90 pul 10.0 mi Sur 18.4 mph 25.3 mph N/A   Despejado
2:55 PM 86.4 ° F 47.3 ° F 26% 29.89 pul 10.0 mi SSE 20.7 mph 28.8 mph N/A   Despejado
3:15 PM 86.5 ° F 48.2 ° F 26% 29.89 pul 10.0 mi Sur 23.0 mph 28.8 mph N/A   Despejado
3:35 PM 87.1 ° F 49.5 ° F 27% 29.88 pul 10.0 mi Sur 18.4 mph 26.5 mph N/A   Despejado
3:55 PM 87.6 ° F 49.5 ° F 27% 29.87 pul 10.0 mi Sur 24.2 mph 29.9 mph N/A   Despejado
4:15 PM 87.3 ° F 48.9 ° F 27% 29.87 pul 10.0 mi Sur 18.4 mph 27.6 mph N/A   Despejado
4:35 PM 87.4 ° F 50.4 ° F 28% 29.86 pul 10.0 mi SSE 19.6 mph 23.0 mph N/A   Despejado
4:55 PM 87.3 ° F 50.9 ° F 29% 29.86 pul 10.0 mi SSE 18.4 mph 24.2 mph N/A   Despejado
5:15 PM 87.3 ° F 50.7 ° F 28% 29.85 pul 10.0 mi Sur 17.3 mph 21.9 mph N/A   Despejado
5:35 PM 87.1 ° F 49.8 ° F 28% 29.85 pul 10.0 mi Sur 18.4 mph 26.5 mph N/A   Despejado
5:55 PM 86.9 ° F 49.5 ° F 27% 29.85 pul 10.0 mi SSE 19.6 mph 24.2 mph N/A   Despejado
6:15 PM 86.9 ° F 49.3 ° F 27% 29.85 pul 10.0 mi SSE 17.3 mph 23.0 mph N/A   Despejado
6:35 PM 86.0 ° F 49.1 ° F 28% 29.85 pul 10.0 mi SSE 16.1 mph 26.5 mph N/A   Despejado
6:55 PM 85.3 ° F 48.9 ° F 28% 29.85 pul 10.0 mi Sur 15.0 mph 20.7 mph N/A   Despejado
7:15 PM 84.4 ° F 48.2 ° F 28% 29.85 pul 10.0 mi Sur 13.8 mph - N/A   Despejado
7:35 PM 83.3 ° F 48.7 ° F 30% 29.85 pul 10.0 mi Sur 12.7 mph - N/A   Despejado
7:55 PM 81.9 ° F 47.3 ° F 30% 29.86 pul 10.0 mi SSE 13.8 mph - N/A   Despejado
8:15 PM 79.3 ° F 46.6 ° F 31% 29.86 pul 10.0 mi SE 9.2 mph - N/A   Despejado
8:35 PM 77.7 ° F 47.8 ° F 35% 29.86 pul 10.0 mi SSE 11.5 mph - N/A   Despejado
8:55 PM 75.6 ° F 48.0 ° F 38% 29.87 pul 10.0 mi SE 10.4 mph - N/A   Despejado
9:15 PM 74.3 ° F 49.1 ° F 41% 29.87 pul 10.0 mi SE 10.4 mph - N/A   Despejado
9:35 PM 73.8 ° F 50.2 ° F 43% 29.87 pul 10.0 mi SE 11.5 mph - N/A   Despejado
9:55 PM 73.4 ° F 50.9 ° F 45% 29.88 pul 10.0 mi SSE 12.7 mph - N/A   Despejado
10:15 PM 73.0 ° F 50.9 ° F 46% 29.88 pul 10.0 mi SSE 13.8 mph - N/A   Despejado
10:35 PM 72.7 ° F 50.9 ° F 46% 29.89 pul 10.0 mi SSE 12.7 mph - N/A   Despejado
10:55 PM 72.0 ° F 50.2 ° F 46% 29.89 pul 10.0 mi SSE 12.7 mph - N/A   Despejado
11:15 PM 71.4 ° F 50.0 ° F 47% 29.89 pul 10.0 mi SSE 11.5 mph - N/A   Despejado
11:35 PM 70.0 ° F 50.4 ° F 50% 29.89 pul 10.0 mi SSE 10.4 mph - N/A   Despejado
11:55 PM 69.1 ° F 50.2 ° F 51% 29.90 pul 10.0 mi SE 10.4 mph - N/A   Despejado